Location: Rounton
(54.4000°N, 1.3500°W)
Time: 08:33:38
(UTC+00:00)

Vanguard 1 Rocket - Pass Details

Date: 05 December 2021
Orbit: 651 x 4224 km, 34.3° (Epoch: 19 January)

Event Time Altitude Azimuth Distance (km) Brightness Sun altitude
Rises 04:54:10 0° 249° (WSW) 5,277 - -26.9°
Reaches altitude 10° 04:57:24 10° 241° (WSW) 4,685 - -26.5°
Exits shadow 05:00:36 20° 230° (SW) 4,266 10.4 -26.0°
Maximum altitude 05:09:58 37° 180° (S) 4,209 10.7 -24.7°
Drops below altitude 10° 05:29:50 10° 125° (SE) 7,281 12.9 -21.8°
Sets 05:36:38 0° 118° (ESE) 8,455 13.6 -20.8°
